CW0318 Weather Reports


time (UTC)temp
C
wind
direction
speed
KPH
gust
KPH
rain 1hr
cm
rain 24hr
cm
rain mn
cm
humidity
%
barometer
mb
20260906193231 39 132 0.0 1.6 0.00 0.00 0.00 37 1009.9
20260906192231 39 163 0.0 6.4 0.00 0.00 0.00 37 1010.1
20260906191230 38 165 3.2 6.4 0.00 0.00 0.00 37 1010.4
20260906190230 38 126 0.0 1.6 0.00 0.00 0.00 37 1010.5
20260906185230 39 250 3.2 4.8 0.00 0.00 0.00 37 1010.6
20260906184251 39 183 1.6 4.8 0.00 0.00 0.00 37 1010.8
20260906183230 39 360 0.0 3.2 0.00 0.00 0.00 36 1010.8
20260906182230 38 212 0.0 8.0 0.00 0.00 0.00 39 1011.1
20260906181230 38 145 4.8 8.0 0.00 0.00 0.00 39 1011.2
20260906180250 38 325 3.2 3.2 0.00 0.00 0.00 40 1011.5
20260906175230 37 153 3.2 8.0 0.00 0.00 0.00 41 1011.6
20260906174229 37 206 0.0 4.8 0.00 0.00 0.00 41 1011.7
20260906173229 37 237 1.6 4.8 0.00 0.00 0.00 40 1011.9
20260906172249 37 257 3.2 4.8 0.00 0.00 0.00 39 1012.0
20260906171229 38 236 0.0 0.0 0.00 0.00 0.00 41 1012.1
20260906170229 38 148 0.0 0.0 0.00 0.00 0.00 39 1012.3
20260906165229 38 196 0.0 0.0 0.00 0.00 0.00 42 1012.6
20260906164228 37 163 0.0 0.0 0.00 0.00 0.00 42 1012.6
20260906163229 36 184 0.0 0.0 0.00 0.00 0.00 44 1012.5
20260906162228 36 257 0.0 0.0 0.00 0.00 0.00 45 1012.5
20260906161228 36 229 0.0 0.0 0.00 0.00 0.00 44 1012.5
20260906160228 36 239 0.0 0.0 0.00 0.00 0.00 44 1012.6
20260906155228 36 166 0.0 0.0 0.00 0.00 0.00 46 1012.8
20260906154228 35 247 0.0 0.0 0.00 0.00 0.00 48 1012.8
20260906153228 35 242 0.0 0.0 0.00 0.00 0.00 50 1012.6
20260906152228 33 236 0.0 3.2 0.00 0.00 0.00 55 1012.7
20260906151227 33 248 0.0 3.2 0.00 0.00 0.00 54 1012.7
20260906150228 33 244 1.6 1.6 0.00 0.00 0.00 54 1012.6
20260906145227 32 244 0.0 3.2 0.00 0.00 0.00 56 1012.5
20260906144227 31 265 0.0 3.2 0.00 0.00 0.00 60 1012.5
20260906143227 31 265 1.6 1.6 0.00 0.00 0.00 61 1012.5
20260906142227 31 255 0.0 0.0 0.00 0.00 0.00 64 1012.4
20260906141227 30 255 0.0 0.0 0.00 0.00 0.00 62 1012.4
20260906140306 30 255 0.0 0.0 0.00 0.00 0.00 63 1012.4
20260906135226 30 185 0.0 3.2 0.00 0.00 0.00 67 1012.1
20260906134226 29 185 0.0 3.2 0.00 0.00 0.00 67 1012.2
20260906133226 28 248 0.0 3.2 0.00 0.00 0.00 68 1012.2
20260906132226 28 196 0.0 4.8 0.00 0.00 0.00 68 1012.3
20260906131306 27 174 0.0 4.8 0.00 0.00 0.00 69 1012.2
20260906130226 27 199 0.0 1.6 0.00 0.00 0.00 71 1012.0
20260906125225 26 180 0.0 1.6 0.00 0.00 0.00 72 1011.8
20260906124245 26 171 0.0 1.6 0.00 0.00 0.00 74 1011.8
20260906123225 26 214 0.0 0.0 0.00 0.00 0.00 75 1011.6
20260906122225 25 215 0.0 0.0 0.00 0.00 0.00 75 1011.7
20260906121225 25 217 0.0 0.0 0.00 0.00 0.00 74 1011.6
20260906120225 25 217 0.0 0.0 0.00 0.00 0.00 75 1011.4
20260906115225 26 217 0.0 0.0 0.00 0.00 0.00 74 1011.2
20260906114225 26 217 0.0 0.0 0.00 0.00 0.00 72 1011.3
20260906113224 26 217 0.0 0.0 0.00 0.00 0.00 72 1011.3
20260906112224 26 217 0.0 0.0 0.00 0.00 0.00 72 1011.0
20260906111224 26 217 0.0 0.0 0.00 0.00 0.00 73 1011.0
20260906110224 26 217 0.0 0.0 0.00 0.00 0.00 72 1010.8
20260906105224 26 217 0.0 0.0 0.00 0.00 0.00 73 1010.8
20260906104224 26 217 0.0 0.0 0.00 0.00 0.00 72 1010.7
20260906103224 26 217 0.0 0.0 0.00 0.00 0.00 71 1010.8
20260906102306 26 217 0.0 0.0 0.00 0.00 0.00 71 1010.9
20260906101223 27 217 0.0 0.0 0.00 0.00 0.00 70 1010.9
20260906100223 27 217 0.0 0.0 0.00 0.00 0.00 70 1011.0
20260906095223 27 217 0.0 0.0 0.00 0.00 0.00 68 1011.0
20260906094303 27 217 0.0 0.0 0.00 0.00 0.00 67 1010.8
20260906093223 27 217 0.0 0.0 0.00 0.00 0.00 66 1010.8
20260906092223 27 217 0.0 0.0 0.00 0.00 0.00 65 1010.7
20260906091222 27 217 0.0 0.0 0.00 0.00 0.00 65 1010.8
20260906090222 27 217 0.0 0.0 0.00 0.00 0.00 64 1010.5
20260906085222 27 217 0.0 1.6 0.00 0.00 0.00 64 1010.5
20260906084222 28 217 0.0 0.0 0.00 0.00 0.00 63 1010.4
20260906083222 28 217 0.0 0.0 0.00 0.00 0.00 63 1010.4
20260906082222 28 217 0.0 1.6 0.00 0.00 0.00 62 1010.3
20260906081222 28 217 0.0 1.6 0.00 0.00 0.00 61 1010.3
20260906080222 28 217 1.6 1.6 0.00 0.00 0.00 61 1010.2
20260906075221 28 217 0.0 0.0 0.00 0.00 0.00 61 1010.1
20260906074221 28 217 0.0 0.0 0.00 0.00 0.00 62 1010.0
20260906073221 28 217 0.0 0.0 0.00 0.00 0.00 62 1010.1
20260906072241 28 217 0.0 0.0 0.00 0.00 0.00 60 1010.2
20260906071221 28 217 0.0 0.0 0.00 0.00 0.00 61 1010.5
20260906070221 28 217 0.0 0.0 0.00 0.00 0.00 60 1010.4
20260906065221 28 217 0.0 0.0 0.00 0.00 0.00 60 1010.3
20260906064221 28 217 0.0 0.0 0.00 0.00 0.00 60 1010.2
20260906063221 29 217 0.0 0.0 0.00 0.00 0.00 59 1010.4
20260906062220 29 217 0.0 0.0 0.00 0.00 0.00 59 1010.4
20260906061220 29 217 0.0 0.0 0.00 0.00 0.00 60 1010.4
20260906060220 29 217 0.0 0.0 0.00 0.00 0.00 59 1010.5
20260906055220 29 217 0.0 0.0 0.00 0.00 0.00 58 1010.5
20260906054220 30 217 0.0 0.0 0.00 0.00 0.00 57 1010.4
20260906053220 30 217 0.0 0.0 0.00 0.00 0.00 57 1010.5
20260906052220 30 217 0.0 0.0 0.00 0.00 0.00 57 1010.4
20260906051239 30 217 0.0 0.0 0.00 0.00 0.00 57 1010.3
20260906050219 30 217 0.0 0.0 0.00 0.00 0.00 58 1010.2
20260906045219 30 88 0.0 0.0 0.00 0.00 0.00 57 1010.3
20260906044219 30 88 0.0 0.0 0.00 0.00 0.00 56 1010.3
20260906043239 30 88 0.0 0.0 0.00 0.00 0.00 54 1010.2
20260906042219 31 88 0.0 0.0 0.00 0.00 0.00 55 1010.0
20260906041218 31 88 0.0 0.0 0.00 0.00 0.00 54 1010.1
20260906040218 31 88 0.0 0.0 0.00 0.00 0.00 54 1010.1
20260906035218 31 88 0.0 0.0 0.00 0.00 0.00 55 1010.3
20260906034218 31 88 0.0 0.0 0.00 0.00 0.00 55 1010.1
20260906033218 31 88 0.0 0.0 0.00 0.00 0.00 55 1009.9
20260906032218 31 88 0.0 1.6 0.00 0.00 0.00 56 1009.9
20260906031218 31 88 0.0 1.6 0.00 0.00 0.00 53 1010.0
20260906030218 31 88 0.0 0.0 0.00 0.00 0.00 52 1010.1
20260906025218 31 88 0.0 0.0 0.00 0.00 0.00 52 1010.0
20260906024237 32 88 0.0 0.0 0.00 0.00 0.00 52 1009.8
20260906023217 32 88 0.0 0.0 0.00 0.00 0.00 50 1009.6
20260906022217 32 88 0.0 0.0 0.00 0.00 0.00 50 1009.6
20260906021237 32 88 0.0 0.0 0.00 0.00 0.00 50 1009.3
20260906020217 32 88 0.0 0.0 0.00 0.00 0.00 49 1009.1
20260906015217 32 88 0.0 0.0 0.00 0.00 0.00 49 1009.2
20260906014216 33 88 0.0 0.0 0.00 0.00 0.00 48 1009.1
20260906013236 33 88 0.0 0.0 0.00 0.00 0.00 47 1009.0
20260906012216 33 88 0.0 1.6 0.00 0.00 0.00 45 1009.0
20260906011256 34 88 0.0 0.0 0.00 0.00 0.00 43 1008.8
20260906010216 35 88 0.0 0.0 0.00 0.00 0.00 42 1008.8
20260906005216 35 88 0.0 0.0 0.00 0.00 0.00 41 1008.8
20260906004236 35 88 0.0 0.0 0.00 0.00 0.00 39 1008.7
20260906003215 36 88 0.0 0.0 0.00 0.00 0.00 39 1008.7
20260906002215 36 88 0.0 4.8 0.00 0.00 0.00 38 1008.6
20260906001235 36 70 1.6 4.8 0.00 0.00 0.00 38 1008.6
20260906000215 36 90 0.0 1.6 0.00 0.00 0.00 37 1008.6
20260905235215 36 82 3.2 4.8 0.00 0.00 0.00 38 1008.5
20260905234215 37 92 3.2 4.8 0.00 0.00 0.00 38 1008.5
20260905233215 37 84 3.2 3.2 0.00 0.00 0.00 37 1008.5
20260905232215 37 255 0.0 4.8 0.00 0.00 0.00 37 1008.5
20260905231214 37 255 0.0 4.8 0.00 0.00 0.00 37 1008.5
20260905230214 37 215 3.2 3.2 0.00 0.00 0.00 37 1008.5
20260905225214 37 165 1.6 4.8 0.00 0.00 0.00 37 1008.6
20260905224214 37 172 0.0 4.8 0.00 0.00 0.00 37 1008.5
20260905223214 37 124 0.0 3.2 0.00 0.00 0.00 37 1008.7
20260905222214 37 252 1.6 8.0 0.00 0.00 0.00 37 1008.7
20260905221214 37 44 0.0 8.0 0.00 0.00 0.00 37 1008.7
20260905220214 37 135 1.6 1.6 0.00 0.00 0.00 38 1008.9
20260905215233 37 65 4.8 9.7 0.00 0.00 0.00 36 1008.9
20260905214214 37 178 0.0 4.8 0.00 0.00 0.00 37 1009.0
20260905213213 37 92 3.2 3.2 0.00 0.00 0.00 38 1009.1
20260905212213 37 83 1.6 9.7 0.00 0.00 0.00 38 1009.3
20260905211213 37 110 1.6 4.8 0.00 0.00 0.00 39 1009.3
20260905210213 37 258 0.0 0.0 0.00 0.00 0.00 38 1009.4
20260905205213 37 148 0.0 11.3 0.00 0.00 0.00 39 1009.8
20260905204213 37 88 6.4 11.3 0.00 0.00 0.00 40 1010.0
20260905203212 37 258 0.0 1.6 0.00 0.00 0.00 40 1010.0
20260905202212 37 288 0.0 4.8 0.00 0.00 0.00 39 1010.0
20260905201212 37 150 0.0 4.8 0.00 0.00 0.00 39 1010.5
20260905200212 37 129 3.2 4.8 0.00 0.00 0.00 39 1010.7
20260905195232 37 184 0.0 8.0 0.00 0.00 0.00 40 1010.7
20260905194212 37 266 3.2 8.0 0.00 0.00 0.00 40 1010.9